DW6494 Weather Reports


Display with metric or nautical units.
time (UTC)temp
F
wind
direction
speed
MPH
gust
MPH
rain 1hr
in
rain 24hr
in
rain mn
in
humidity
%
barometer
mb
20260902194529 80 152 14.0 28.0 0.00 0.00 0.00 27 1019.0
20260902194029 80 141 16.0 26.0 0.00 0.00 0.00 24 1019.0
20260902193529 80 145 13.0 24.0 0.00 0.00 0.00 23 1019.0
20260902193029 80 127 4.0 11.0 0.00 0.00 0.00 27 1020.0
20260902192529 80 147 7.0 17.0 0.00 0.00 0.00 28 1020.0
20260902192031 79 125 5.0 13.0 0.00 0.00 0.00 29 1020.0
20260902191530 79 144 8.0 14.0 0.00 0.00 0.00 28 1020.0
20260902191032 79 115 5.0 10.0 0.00 0.00 0.00 29 1020.0
20260902190529 79 154 8.0 19.0 0.00 0.00 0.00 29 1020.0
20260902190033 79 160 7.0 15.0 0.00 0.00 0.00 28 1020.0
20260902185530 79 131 9.0 14.0 0.00 0.00 0.00 28 1020.0
20260902185029 79 154 11.0 20.0 0.00 0.00 0.00 27 1020.0
20260902184531 79 177 9.0 16.0 0.00 0.00 0.00 29 1020.0
20260902184033 79 154 9.0 15.0 0.00 0.00 0.00 29 1020.0
20260902183530 79 157 6.0 10.0 0.00 0.00 0.00 32 1020.0
20260902183029 78 140 11.0 18.0 0.00 0.00 0.00 33 1020.0
20260902182530 78 102 8.0 13.0 0.00 0.00 0.00 32 1020.0
20260902182029 78 144 13.0 25.0 0.00 0.00 0.00 33 1020.0
20260902181529 79 84 6.0 9.0 0.00 0.00 0.00 32 1020.0
20260902181029 79 163 5.0 17.0 0.00 0.00 0.00 34 1020.0
20260902180529 78 166 9.0 21.0 0.00 0.00 0.00 34 1020.0
20260902180030 78 149 7.0 13.0 0.00 0.00 0.00 34 1020.0
20260902175529 78 115 9.0 14.0 0.00 0.00 0.00 34 1020.0
20260902175029 78 165 6.0 9.0 0.00 0.00 0.00 34 1020.0
20260902174530 78 360 4.0 8.0 0.00 0.00 0.00 37 1020.0
20260902174029 77 148 10.0 17.0 0.00 0.00 0.00 36 1020.0
20260902173529 77 140 9.0 17.0 0.00 0.00 0.00 34 1020.0
20260902173029 77 93 4.0 8.0 0.00 0.00 0.00 35 1020.0
20260902172530 77 129 8.0 16.0 0.00 0.00 0.00 39 1020.0
20260902172031 76 167 12.0 25.0 0.00 0.00 0.00 37 1020.0
20260902171529 76 184 7.0 16.0 0.00 0.00 0.00 39 1020.0
20260902171029 77 144 10.0 24.0 0.00 0.00 0.00 40 1020.0
20260902170530 76 129 9.0 16.0 0.00 0.00 0.00 38 1020.0
20260902170029 76 114 9.0 16.0 0.00 0.00 0.00 41 1020.0
20260902165531 75 127 9.0 18.0 0.00 0.00 0.00 42 1020.0
20260902165029 74 82 3.0 8.0 0.00 0.00 0.00 43 1020.0
20260902164529 74 129 8.0 10.0 0.00 0.00 0.00 42 1020.0
20260902164029 73 165 6.0 13.0 0.00 0.00 0.00 44 1020.0
20260902163529 74 37 2.0 7.0 0.00 0.00 0.00 44 1020.0
20260902163029 73 136 6.0 9.0 0.00 0.00 0.00 44 1020.0
20260902162529 73 156 13.0 18.0 0.00 0.00 0.00 43 1020.0
20260902162030 73 143 9.0 17.0 0.00 0.00 0.00 43 1020.0
20260902161529 72 130 9.0 12.0 0.00 0.00 0.00 44 1020.0
20260902161030 72 125 4.0 9.0 0.00 0.00 0.00 45 1020.0
20260902160529 73 53 5.0 9.0 0.00 0.00 0.00 44 1020.0
20260902160030 73 149 9.0 14.0 0.00 0.00 0.00 44 1020.0
20260902155529 72 149 10.0 11.0 0.00 0.00 0.00 42 1020.0
20260902155030 72 171 7.0 10.0 0.00 0.00 0.00 44 1020.0
20260902154530 72 152 9.0 13.0 0.00 0.00 0.00 44 1021.0
20260902154029 71 148 9.0 15.0 0.00 0.00 0.00 44 1021.0
20260902153529 72 130 9.0 15.0 0.00 0.00 0.00 44 1020.0
20260902153029 72 169 9.0 14.0 0.00 0.00 0.00 43 1020.0
20260902152532 72 155 9.0 15.0 0.00 0.00 0.00 45 1020.0
20260902152029 72 150 9.0 19.0 0.00 0.00 0.00 45 1020.0
20260902151530 72 158 6.0 12.0 0.00 0.00 0.00 45 1020.0
20260902151030 72 148 9.0 14.0 0.00 0.00 0.00 45 1020.0
20260902150530 72 158 11.0 16.0 0.00 0.00 0.00 44 1020.0
20260902150032 72 141 4.0 7.0 0.00 0.00 0.00 45 1020.0
20260902145530 72 112 2.0 4.0 0.00 0.00 0.00 46 1020.0
20260902145029 72 138 7.0 10.0 0.00 0.00 0.00 45 1020.0
20260902144530 71 138 6.0 13.0 0.00 0.00 0.00 46 1020.0
20260902144031 70 155 6.0 9.0 0.00 0.00 0.00 46 1020.0
20260902143530 70 167 6.0 11.0 0.00 0.00 0.00 47 1020.0
20260902143030 69 133 3.0 11.0 0.00 0.00 0.00 47 1020.0
20260902142533 69 136 5.0 7.0 0.00 0.00 0.00 49 1020.0
20260902142029 69 165 4.0 11.0 0.00 0.00 0.00 49 1020.0
20260902141529 68 141 12.0 18.0 0.00 0.00 0.00 48 1020.0
20260902141030 68 143 9.0 17.0 0.00 0.00 0.00 51 1020.0
20260902140529 68 169 5.0 9.0 0.00 0.00 0.00 52 1020.0
20260902140030 67 134 9.0 12.0 0.00 0.00 0.00 52 1020.0
20260902135532 67 73 7.0 13.0 0.00 0.00 0.00 54 1020.0
20260902135030 66 141 7.0 11.0 0.00 0.00 0.00 54 1020.0
20260902134530 66 165 10.0 15.0 0.00 0.00 0.00 56 1020.0
20260902134030 65 129 6.0 11.0 0.00 0.00 0.00 57 1020.0
20260902133530 65 60 5.0 8.0 0.00 0.00 0.00 58 1020.0
20260902133030 65 164 5.0 10.0 0.00 0.00 0.00 57 1020.0
20260902132531 65 123 5.0 13.0 0.00 0.00 0.00 58 1020.0
20260902132031 65 144 7.0 10.0 0.00 0.00 0.00 58 1020.0
20260902131529 64 34 4.0 6.0 0.00 0.00 0.00 61 1020.0
20260902131029 65 202 3.0 4.0 0.00 0.00 0.00 60 1020.0
20260902130529 65 348 4.0 6.0 0.00 0.00 0.00 59 1020.0
20260902130030 65 329 0.0 0.0 0.00 0.00 0.00 60 1020.0
20260902125531 65 332 5.0 6.0 0.00 0.00 0.00 59 1020.0
20260902125029 65 359 5.0 5.0 0.00 0.00 0.00 58 1020.0
20260902124531 65 168 4.0 5.0 0.00 0.00 0.00 59 1020.0
20260902124031 65 34 3.0 4.0 0.00 0.00 0.00 59 1020.0
20260902123529 65 111 4.0 9.0 0.00 0.00 0.00 59 1020.0
20260902123029 65 348 4.0 5.0 0.00 0.00 0.00 59 1020.0
20260902122530 65 68 1.0 2.0 0.00 0.00 0.00 60 1020.0
20260902122029 65 325 4.0 5.0 0.00 0.00 0.00 60 1020.0
20260902121531 65 9 4.0 4.0 0.00 0.00 0.00 60 1020.0
20260902121029 65 346 7.0 8.0 0.00 0.00 0.00 58 1020.0
20260902120530 65 346 4.0 6.0 0.00 0.00 0.00 57 1020.0
20260902120030 65 302 4.0 5.0 0.00 0.00 0.00 59 1020.0
20260902115529 64 359 4.0 4.0 0.00 0.00 0.00 59 1020.0
20260902115030 64 342 0.0 0.0 0.00 0.00 0.00 60 1020.0
20260902114530 64 341 1.0 4.0 0.00 0.00 0.00 60 1020.0
20260902114030 65 349 6.0 7.0 0.00 0.00 0.00 61 1020.0
20260902113529 65 345 5.0 5.0 0.00 0.00 0.00 60 1020.0
20260902113029 65 354 6.0 7.0 0.00 0.00 0.00 60 1020.0
20260902112530 65 29 3.0 5.0 0.00 0.00 0.00 60 1020.0
20260902112029 65 53 4.0 6.0 0.00 0.00 0.00 60 1020.0
20260902111529 65 231 4.0 4.0 0.00 0.00 0.00 60 1020.0
20260902111029 65 26 6.0 10.0 0.00 0.00 0.00 61 1020.0
20260902110529 65 29 4.0 6.0 0.00 0.00 0.00 61 1020.0
20260902110031 65 118 4.0 5.0 0.00 0.00 0.00 61 1020.0
20260902105529 65 123 4.0 5.0 0.00 0.00 0.00 61 1020.0
20260902105030 65 4 7.0 9.0 0.00 0.00 0.00 61 1020.0
20260902104529 65 353 5.0 5.0 0.00 0.00 0.00 61 1020.0
20260902104034 66 55 4.0 5.0 0.00 0.00 0.00 61 1020.0
20260902103530 66 104 4.0 5.0 0.00 0.00 0.00 61 1020.0
20260902103029 66 94 6.0 9.0 0.00 0.00 0.00 61 1020.0
20260902102529 65 95 4.0 8.0 0.00 0.00 0.00 60 1020.0
20260902102029 65 45 3.0 4.0 0.00 0.00 0.00 60 1020.0
20260902101529 65 37 3.0 5.0 0.00 0.00 0.00 60 1020.0
20260902101030 65 275 4.0 7.0 0.00 0.00 0.00 60 1020.0
20260902100530 64 3 6.0 9.0 0.00 0.00 0.00 60 1020.0
20260902100029 65 349 3.0 5.0 0.00 0.00 0.00 60 1020.0
20260902095529 65 359 4.0 5.0 0.00 0.00 0.00 59 1020.0
20260902095029 65 360 5.0 5.0 0.00 0.00 0.00 60 1020.0
20260902094529 65 359 4.0 5.0 0.00 0.00 0.00 60 1020.0
20260902094030 65 348 6.0 7.0 0.00 0.00 0.00 59 1020.0
20260902093529 65 355 5.0 5.0 0.00 0.00 0.00 59 1020.0
20260902093031 65 350 5.0 5.0 0.00 0.00 0.00 59 1020.0
20260902092530 66 3 6.0 7.0 0.00 0.00 0.00 58 1020.0
20260902092029 66 359 6.0 7.0 0.00 0.00 0.00 57 1020.0
20260902091529 67 358 6.0 6.0 0.00 0.00 0.00 55 1020.0
20260902091030 67 35 3.0 4.0 0.00 0.00 0.00 54 1020.0
20260902090533 67 3 4.0 6.0 0.00 0.00 0.00 55 1020.0
20260902090029 67 323 3.0 5.0 0.00 0.00 0.00 54 1020.0
20260902085530 67 335 3.0 4.0 0.00 0.00 0.00 54 1020.0
20260902085029 67 197 3.0 4.0 0.00 0.00 0.00 55 1020.0
20260902084530 66 173 4.0 4.0 0.00 0.00 0.00 55 1020.0
20260902084038 66 106 3.0 6.0 0.00 0.00 0.00 55 1020.0
20260902083529 65 343 6.0 7.0 0.00 0.00 0.00 58 1020.0
20260902083030 65 129 3.0 7.0 0.00 0.00 0.00 57 1020.0
20260902082531 65 318 4.0 5.0 0.00 0.00 0.00 58 1020.0
20260902082030 65 352 6.0 8.0 0.00 0.00 0.00 59 1020.0
20260902081531 65 342 6.0 7.0 0.00 0.00 0.00 60 1020.0
20260902081030 66 341 6.0 6.0 0.00 0.00 0.00 59 1020.0
20260902080530 66 357 5.0 6.0 0.00 0.00 0.00 58 1020.0
20260902080029 67 3 5.0 6.0 0.00 0.00 0.00 58 1020.0
20260902075529 67 359 6.0 6.0 0.00 0.00 0.00 58 1020.0
20260902075030 67 6 5.0 7.0 0.00 0.00 0.00 57 1020.0
20260902074529 68 22 2.0 5.0 0.00 0.00 0.00 57 1020.0
20260902074031 68 81 2.0 4.0 0.00 0.00 0.00 57 1020.0
20260902073529 68 38 2.0 5.0 0.00 0.00 0.00 57 1020.0
20260902073030 68 188 2.0 4.0 0.00 0.00 0.00 55 1020.0
20260902072529 69 149 1.0 5.0 0.00 0.00 0.00 55 1020.0
20260902072031 68 162 7.0 9.0 0.00 0.00 0.00 55 1020.0
20260902071531 68 159 4.0 9.0 0.00 0.00 0.00 55 1020.0
20260902071030 68 140 5.0 8.0 0.00 0.00 0.00 56 1020.0
20260902070529 68 133 3.0 4.0 0.00 0.00 0.00 56 1020.0
20260902070032 68 22 3.0 4.0 0.00 0.00 0.00 58 1020.0
20260902065529 68 153 5.0 8.0 0.00 0.00 0.00 57 1020.0
20260902065030 68 121 3.0 4.0 0.00 0.00 0.00 58 1020.0
20260902064529 69 149 3.0 6.0 0.00 0.00 0.00 58 1020.0
20260902064031 69 148 4.0 8.0 0.00 0.00 0.00 57 1020.0
20260902063529 69 44 0.0 2.0 0.00 0.00 0.00 58 1020.0
20260902063029 69 138 1.0 4.0 0.00 0.00 0.00 57 1020.0
20260902062529 69 120 0.0 1.0 0.00 0.00 0.00 56 1020.0
20260902062029 70 126 1.0 3.0 0.00 0.00 0.00 55 1020.0
20260902061529 70 143 5.0 9.0 0.00 0.00 0.00 54 1020.0
20260902061029 70 138 1.0 3.0 0.00 0.00 0.00 54 1020.0
20260902060530 70 144 2.0 3.0 0.00 0.00 0.00 54 1020.0
20260902060029 70 107 3.0 5.0 0.00 0.00 0.00 55 1020.0
20260902055530 70 137 8.0 12.0 0.00 0.00 0.00 56 1020.0
20260902055030 70 172 3.0 9.0 0.00 0.00 0.00 59 1020.0
20260902054529 70 152 7.0 11.0 0.00 0.00 0.00 59 1020.0
20260902054029 70 156 4.0 5.0 0.00 0.00 0.00 60 1020.0
20260902053531 70 151 6.0 9.0 0.00 0.00 0.00 60 1020.0
20260902053029 71 149 4.0 6.0 0.00 0.00 0.00 59 1020.0
20260902052530 71 150 8.0 11.0 0.00 0.00 0.00 58 1020.0
20260902052029 71 147 4.0 7.0 0.00 0.00 0.00 58 1020.0
20260902051529 71 149 6.0 11.0 0.00 0.00 0.00 57 1020.0
20260902051030 71 136 4.0 9.0 0.00 0.00 0.00 56 1020.0
20260902050529 71 157 9.0 12.0 0.00 0.00 0.00 56 1020.0
20260902050029 71 142 3.0 11.0 0.00 0.00 0.00 55 1020.0
20260902045529 71 141 6.0 11.0 0.00 0.00 0.00 54 1020.0
20260902045029 70 157 9.0 11.0 0.00 0.00 0.00 54 1020.0
20260902044530 70 359 2.0 4.0 0.00 0.00 0.00 54 1020.0
20260902044030 70 163 3.0 4.0 0.00 0.00 0.00 54 1020.0
20260902043529 70 360 0.0 0.0 0.00 0.00 0.00 54 1020.0
20260902043029 71 11 4.0 5.0 0.00 0.00 0.00 54 1020.0
20260902042530 71 360 1.0 3.0 0.00 0.00 0.00 54 1020.0
20260902042029 71 9 1.0 4.0 0.00 0.00 0.00 55 1020.0
20260902041530 70 19 0.0 1.0 0.00 0.00 0.00 56 1020.0
20260902041029 70 360 0.0 0.0 0.00 0.00 0.00 57 1020.0
20260902040530 71 1 1.0 4.0 0.00 0.00 0.00 58 1020.0
20260902040029 71 360 0.0 0.0 0.00 0.00 0.00 56 1020.0
20260902035048 71 360 0.0 0.0 0.00 0.00 0.00 54 1020.0
20260902034529 70 118 1.0 2.0 0.00 0.00 0.00 55 1020.0
20260902034029 70 5 1.0 4.0 0.00 0.00 0.00 54 1020.0
20260902033529 70 360 0.0 0.0 0.00 0.00 0.00 54 1020.0
20260902033030 70 6 0.0 0.0 0.00 0.00 0.00 53 1020.0
20260902032531 69 357 0.0 0.0 0.00 0.00 0.00 55 1019.0
20260902032029 69 360 0.0 0.0 0.00 0.00 0.00 55 1019.0
20260902031533 69 349 2.0 4.0 0.00 0.00 0.00 56 1019.0
20260902031029 70 356 1.0 3.0 0.00 0.00 0.00 54 1019.0
20260902030529 70 3 4.0 5.0 0.00 0.00 0.00 56 1019.0
20260902030030 70 360 0.0 0.0 0.00 0.00 0.00 54 1019.0
20260902025529 71 360 0.0 0.0 0.00 0.00 0.00 53 1019.0
20260902025029 71 360 0.0 0.0 0.00 0.00 0.00 52 1019.0
20260902024530 72 360 0.0 0.0 0.00 0.00 0.00 51 1019.0
20260902024029 72 360 0.0 0.0 0.00 0.00 0.00 48 1019.0
20260902023529 73 32 1.0 1.0 0.00 0.00 0.00 48 1019.0
20260902023030 73 360 0.0 0.0 0.00 0.00 0.00 48 1019.0
20260902022529 73 11 3.0 4.0 0.00 0.00 0.00 47 1019.0
20260902022029 74 138 2.0 4.0 0.00 0.00 0.00 45 1019.0
20260902021531 74 358 2.0 3.0 0.00 0.00 0.00 45 1019.0
20260902021033 75 18 2.0 3.0 0.00 0.00 0.00 44 1019.0
20260902020530 75 116 4.0 6.0 0.00 0.00 0.00 43 1019.0
20260902020030 75 145 4.0 4.0 0.00 0.00 0.00 43 1019.0
20260902015529 75 128 3.0 5.0 0.00 0.00 0.00 43 1019.0
20260902015029 76 141 5.0 7.0 0.00 0.00 0.00 42 1019.0
20260902014530 76 147 7.0 10.0 0.00 0.00 0.00 41 1019.0
20260902014030 76 155 5.0 6.0 0.00 0.00 0.00 41 1019.0
20260902013529 76 150 7.0 9.0 0.00 0.00 0.00 40 1019.0
20260902013030 76 129 4.0 4.0 0.00 0.00 0.00 41 1019.0
20260902012529 76 149 1.0 4.0 0.00 0.00 0.00 42 1019.0
20260902012029 76 164 2.0 6.0 0.00 0.00 0.00 42 1019.0
20260902011529 76 156 2.0 5.0 0.00 0.00 0.00 42 1019.0
20260902011030 76 153 7.0 9.0 0.00 0.00 0.00 43 1019.0
20260902010530 76 129 3.0 4.0 0.00 0.00 0.00 44 1019.0
20260902010029 76 161 5.0 6.0 0.00 0.00 0.00 44 1019.0
20260902005529 77 149 10.0 16.0 0.00 0.00 0.00 42 1019.0
20260902005031 77 140 12.0 16.0 0.00 0.00 0.00 40 1019.0
20260902004529 77 149 8.0 14.0 0.00 0.00 0.00 38 1019.0
20260902004029 77 145 6.0 11.0 0.00 0.00 0.00 41 1019.0
20260902003533 77 149 8.0 12.0 0.00 0.00 0.00 42 1019.0
20260902003030 77 167 2.0 3.0 0.00 0.00 0.00 41 1019.0
20260902002529 77 138 3.0 4.0 0.00 0.00 0.00 41 1019.0
20260902002031 77 170 6.0 9.0 0.00 0.00 0.00 40 1019.0
20260902001530 77 149 9.0 16.0 0.00 0.00 0.00 40 1019.0
20260902001029 77 133 7.0 13.0 0.00 0.00 0.00 41 1019.0
20260902000530 77 133 3.0 7.0 0.00 0.00 0.00 40 1019.0
20260902000030 78 151 11.0 13.0 0.00 0.00 0.00 39 1019.0
20260901235530 78 163 9.0 13.0 0.00 0.00 0.00 39 1019.0
20260901235029 78 156 10.0 13.0 0.00 0.00 0.00 39 1019.0
20260901234529 78 138 13.0 17.0 0.00 0.00 0.00 38 1019.0
20260901234029 78 147 10.0 15.0 0.00 0.00 0.00 38 1019.0
20260901233529 78 147 11.0 16.0 0.00 0.00 0.00 39 1020.0
20260901233029 79 138 8.0 12.0 0.00 0.00 0.00 38 1020.0
20260901232530 79 158 7.0 9.0 0.00 0.00 0.00 38 1020.0
20260901232029 79 140 13.0 16.0 0.00 0.00 0.00 38 1020.0
20260901231530 79 151 9.0 13.0 0.00 0.00 0.00 38 1020.0
20260901231030 79 164 7.0 11.0 0.00 0.00 0.00 39 1020.0
20260901230530 79 142 13.0 18.0 0.00 0.00 0.00 37 1020.0
20260901230030 79 132 14.0 18.0 0.00 0.00 0.00 37 1020.0
20260901225529 78 141 11.0 18.0 0.00 0.00 0.00 37 1020.0
20260901225029 78 143 9.0 14.0 0.00 0.00 0.00 38 1020.0
20260901224529 78 149 9.0 14.0 0.00 0.00 0.00 39 1020.0
20260901224029 78 151 7.0 10.0 0.00 0.00 0.00 40 1020.0
20260901223530 78 152 11.0 15.0 0.00 0.00 0.00 40 1020.0
20260901223029 77 137 8.0 13.0 0.00 0.00 0.00 41 1020.0
20260901222530 77 131 8.0 13.0 0.00 0.00 0.00 49 1020.0
20260901222029 77 122 7.0 11.0 0.00 0.00 0.00 47 1020.0
20260901221530 77 122 7.0 12.0 0.00 0.00 0.00 47 1020.0
20260901221029 76 79 5.0 10.0 0.00 0.00 0.00 47 1020.0
20260901220529 76 80 8.0 11.0 0.00 0.00 0.00 48 1020.0
20260901220029 75 114 7.0 11.0 0.00 0.00 0.00 48 1020.0
20260901215529 74 148 9.0 16.0 0.00 0.00 0.00 49 1020.0
20260901215029 73 53 4.0 8.0 0.00 0.00 0.00 55 1021.0
20260901214529 74 145 4.0 9.0 0.00 0.00 0.00 57 1021.0
20260901214029 74 148 9.0 17.0 0.00 0.00 0.00 52 1021.0
20260901213537 74 121 8.0 11.0 0.00 0.00 0.00 53 1021.0
20260901213029 74 148 11.0 16.0 0.00 0.00 0.00 52 1021.0
20260901212529 73 129 7.0 9.0 0.00 0.00 0.00 52 1021.0
20260901212033 73 111 4.0 7.0 0.00 0.00 0.00 52 1021.0
20260901211530 73 138 8.0 13.0 0.00 0.00 0.00 52 1021.0
20260901211029 73 143 22.0 32.0 0.00 0.00 0.00 50 1021.0
20260901210529 76 142 14.0 20.0 0.00 0.00 0.00 47 1021.0
20260901210029 76 166 12.0 16.0 0.00 0.00 0.00 43 1021.0
20260901205529 77 158 10.0 13.0 0.00 0.00 0.00 43 1021.0
20260901205031 77 160 6.0 15.0 0.00 0.00 0.00 43 1021.0
20260901204529 78 163 9.0 13.0 0.00 0.00 0.00 41 1021.0
20260901204029 78 148 6.0 9.0 0.00 0.00 0.00 43 1021.0
20260901203530 77 158 15.0 18.0 0.00 0.00 0.00 43 1021.0
20260901203029 77 138 15.0 20.0 0.00 0.00 0.00 43 1021.0
20260901202529 76 125 10.0 14.0 0.00 0.00 0.00 44 1021.0
20260901202029 76 153 11.0 16.0 0.00 0.00 0.00 45 1021.0
20260901201530 76 150 7.0 10.0 0.00 0.00 0.00 47 1022.0
20260901201029 76 139 13.0 18.0 0.00 0.00 0.00 46 1022.0
20260901200530 76 157 9.0 13.0 0.00 0.00 0.00 46 1022.0
20260901200030 76 147 9.0 17.0 0.00 0.00 0.00 46 1022.0
20260901195529 75 127 9.0 13.0 0.00 0.00 0.00 47 1022.0
20260901195030 75 156 10.0 16.0 0.00 0.00 0.00 47 1022.0